This demonstration page uses our WeatherBlox Daily Observations layout. Learn more.

Left ArrowRight Arrow

34.16533, -84.80231

Hourly Observations for April 17, 2016

Temp ( °F °C ) Dew Point ( °F °C ) Humidity (%) Winds ( mph kmh ) Pressure ( in mb ) Visibility ( mi km ) Precip ( " mm )
12:53 am 00:53 Clear 54 12.2 36 2.2 51 51 Calm 30.32 1027 10 16 0.00 0.00
1:53 am 01:53 Clear 47 8.3 39 3.9 74 74 Calm 30.33 1027 10 16 0.00 0.00
2:53 am 02:53 Clear 43 6.1 37 2.8 80 80 Calm 30.33 1027 10 16 0.00 0.00
3:53 am 03:53 Clear 42 5.6 37 2.8 82 82 SE 3 6 30.33 1027 10 16 0.00 0.00
4:53 am 04:53 Clear 42 5.6 37 2.8 82 82 E 3 6 30.33 1027 10 16 0.00 0.00
5:53 am 05:53 Clear 43 6.1 36 2.2 76 76 Calm 30.34 1027 10 16 0.00 0.00
6:53 am 06:53 Clear 39 3.9 36 2.2 89 89 Calm 30.36 1028 10 16 0.00 0.00
7:53 am 07:53 Sunny 42 5.6 39 3.9 89 89 Calm 30.38 1029 10 16 0.00 0.00
8:53 am 08:53 Sunny 53 11.7 39 3.9 59 59 Calm 30.39 1029 10 16 0.00 0.00
9:53 am 09:53 Sunny 59 15 39 3.9 48 48 E 6 9 30.40 1029 10 16 0.00 0.00
10:53 am 10:53 Sunny 64 17.8 39 3.9 40 40 VRB 6 9 30.40 1029 10 16 0.00 0.00
11:20 am 11:20 Mostly Sunny 66 18.9 39 3.9 37 37 ENE 9 15 30.39 1029 10 16 0.00 0.00
11:53 am 11:53 Sunny 67 19.4 38 3.3 35 35 ESE 5 7 30.39 1029 10 16 0.00 0.00
12:53 pm 12:53 Sunny 70 21.1 37 2.8 30 30 ENE 10 17 30.37 1028 10 16 0.00 0.00
1:53 pm 13:53 Sunny 72 22.2 37 2.8 28 28 SSE 8 13 30.35 1028 10 16 0.00 0.00
2:53 pm 14:53 Sunny 73 22.8 37 2.8 27 27 ENE 3 6 30.32 1027 10 16 0.00 0.00
3:53 pm 15:53 Sunny 74 23.3 38 3.3 27 27 VRB 7 11 30.30 1026 10 16 0.00 0.00
4:53 pm 16:53 Sunny 75 23.9 39 3.9 27 27 ENE 8 13 30.28 1025 10 16 0.00 0.00
5:53 pm 17:53 Sunny 75 23.9 40 4.4 28 28 ESE 6 9 30.28 1025 10 16 0.00 0.00
6:53 pm 18:53 Sunny 73 22.8 39 3.9 29 29 ESE 5 7 30.28 1025 10 16 0.00 0.00
7:53 pm 19:53 Sunny 67 19.4 40 4.4 37 37 Calm 30.28 1026 10 16 0.00 0.00
8:53 pm 20:53 Clear 57 13.9 45 7.2 64 64 Calm 30.29 1026 10 16 0.00 0.00
9:53 pm 21:53 Clear 53 11.7 45 7.2 74 74 Calm 30.32 1027 10 16 0.00 0.00
10:53 pm 22:53 Clear 50 10 44 6.7 80 80 Calm 30.33 1027 10 16 0.00 0.00
11:53 pm 23:53 Clear 47 8.3 44 6.7 90 90 Calm 30.33 1027 10 16 0.00 0.00

Powered by AerisWeather